EW4931 Weather Reports


time (UTC)temp
C
wind
direction
speed
KPH
gust
KPH
rain 1hr
cm
rain 24hr
cm
rain mn
cm
humidity
%
barometer
mb
20260502130727 22 244 8.0 20.9 0.00 0.00 0.00 40 1010.1
20260502130225 22 252 12.9 20.9 0.00 0.00 0.00 41 1010.2
20260502123724 23 176 14.5 29.0 0.00 0.00 0.00 36 1010.5
20260502123225 23 224 12.9 29.0 0.00 0.00 0.00 36 1010.5
20260502122724 22 138 9.7 24.1 0.00 0.00 0.00 36 1010.6
20260502122224 22 281 16.1 27.4 0.00 0.00 0.00 36 1010.8
20260502121724 22 283 17.7 27.4 0.00 0.00 0.00 36 1010.7
20260502121224 22 295 9.7 33.8 0.00 0.00 0.00 35 1010.8
20260502120724 22 320 11.3 33.8 0.00 0.00 0.00 35 1010.9
20260502120223 22 326 14.5 24.1 0.00 0.00 0.00 35 1010.8
20260502115725 22 247 14.5 41.8 0.00 0.00 0.00 36 1011.0
20260502115223 22 303 17.7 41.8 0.00 0.00 0.00 36 1011.1
20260502114722 22 323 22.5 30.6 0.00 0.00 0.00 35 1011.2
20260502114440 22 283 12.9 24.1 0.00 0.00 0.00 36 1011.3
20260502113942 22 286 11.3 24.1 0.00 0.00 0.00 36 1011.3
20260502113446 22 258 16.1 25.7 0.00 0.00 0.00 36 1011.3
20260502112722 22 276 9.7 30.6 0.00 0.00 0.00 36 1011.4
20260502112448 21 262 19.3 32.2 0.00 0.00 0.00 37 1011.5
20260502111722 21 269 22.5 32.2 0.00 0.00 0.00 36 1011.5
20260502111221 21 276 17.7 29.0 0.00 0.00 0.00 37 1011.6
20260502110722 21 279 17.7 29.0 0.00 0.00 0.00 36 1011.7
20260502110222 21 285 20.9 29.0 0.00 0.00 0.00 37 1011.8
20260502105722 21 268 17.7 27.4 0.00 0.00 0.00 36 1011.8
20260502105222 22 244 11.3 29.0 0.00 0.00 0.00 37 1011.9
20260502104721 21 285 16.1 29.0 0.00 0.00 0.00 37 1012.0
20260502104221 21 285 17.7 25.7 0.00 0.00 0.00 38 1012.0
20260502103721 21 258 16.1 25.7 0.00 0.00 0.00 37 1012.0
20260502103448 21 313 14.5 32.2 0.00 0.00 0.00 38 1012.1
20260502102720 20 310 20.9 32.2 0.00 0.00 0.00 37 1012.2
20260502102220 21 289 16.1 25.7 0.00 0.00 0.00 37 1012.2
20260502101720 20 279 16.1 27.4 0.00 0.00 0.00 37 1012.2
20260502101439 20 296 8.0 27.4 0.00 0.00 0.00 37 1012.3
20260502100720 20 283 12.9 33.8 0.00 0.00 0.00 38 1012.3
20260502100220 20 275 11.3 33.8 0.00 0.00 0.00 38 1012.5
20260502091219 19 234 9.7 27.4 0.00 0.00 0.00 37 1012.9
20260502090719 20 290 19.3 25.7 0.00 0.00 0.00 37 1013.0
20260502090219 19 257 12.9 22.5 0.00 0.00 0.00 36 1013.1
20260502071216 17 283 16.1 29.0 0.00 0.00 0.00 41 1013.8
20260502070716 17 296 11.3 29.0 0.00 0.00 0.00 41 1013.8
20260502070216 16 316 11.3 24.1 0.00 0.00 0.00 41 1013.7
20260502065935 16 279 9.7 29.0 0.00 0.00 0.00 41 1013.8
20260502065216 16 303 14.5 29.0 0.00 0.00 0.00 41 1013.8
20260502064936 16 274 11.3 38.6 0.00 0.00 0.00 41 1013.9
20260502064216 16 274 20.9 38.6 0.00 0.00 0.00 41 1013.9
20260502063715 16 237 11.3 27.4 0.00 0.00 0.00 41 1014.0
20260502063216 16 276 12.9 30.6 0.00 0.00 0.00 42 1014.0
20260502062716 16 276 14.5 30.6 0.00 0.00 0.00 42 1014.0
20260502062656 16 268 22.5 30.6 0.00 0.00 0.00 42 1014.2
20260502061934 15 251 12.9 29.0 0.00 0.00 0.00 43 1014.1
20260502061216 15 300 19.3 27.4 0.00 0.00 0.00 44 1014.1
20260502060715 15 289 11.3 37.0 0.00 0.00 0.00 44 1014.2
20260502060215 15 303 14.5 37.0 0.00 0.00 0.00 45 1014.1
20260502055715 15 298 14.5 27.4 0.00 0.00 0.00 45 1014.1
20260502055215 15 298 17.7 27.4 0.00 0.00 0.00 46 1014.3
20260502054715 14 254 16.1 22.5 0.00 0.00 0.00 47 1014.3
20260502054435 14 272 11.3 24.1 0.00 0.00 0.00 47 1014.3
20260502053715 14 261 12.9 27.4 0.00 0.00 0.00 47 1014.4
20260502053214 14 293 19.3 27.4 0.00 0.00 0.00 48 1014.3
20260502052715 13 298 9.7 20.9 0.00 0.00 0.00 50 1014.3
20260502052214 13 334 11.3 24.1 0.00 0.00 0.00 51 1014.3
20260502051715 13 290 12.9 24.1 0.00 0.00 0.00 52 1014.3
20260502051214 13 320 17.7 22.5 0.00 0.00 0.00 52 1014.3
20260502050939 13 296 14.5 22.5 0.00 0.00 0.00 54 1014.4
20260502050215 13 283 11.3 22.5 0.00 0.00 0.00 55 1014.4
20260502045714 12 288 9.7 16.1 0.00 0.00 0.00 56 1014.4
20260502045214 12 285 11.3 16.1 0.00 0.00 0.00 56 1014.4
20260502044714 12 293 8.0 19.3 0.00 0.00 0.00 57 1014.5
20260502044214 12 309 11.3 19.3 0.00 0.00 0.00 58 1014.5
20260502043935 12 296 8.0 19.3 0.00 0.00 0.00 58 1014.6
20260502043433 12 289 8.0 19.3 0.00 0.00 0.00 59 1014.6
20260502042713 12 298 8.0 16.1 0.00 0.00 0.00 59 1014.7
20260502042213 12 271 9.7 16.1 0.00 0.00 0.00 59 1014.7
20260502041713 12 290 8.0 9.7 0.00 0.00 0.00 59 1014.6
20260502041431 12 275 4.8 14.5 0.00 0.00 0.00 59 1014.7
20260502040712 12 255 6.4 16.1 0.00 0.00 0.00 59 1014.6
20260502040434 12 282 6.4 16.1 0.00 0.00 0.00 59 1014.7
20260502035931 12 266 9.7 14.5 0.00 0.00 0.00 59 1014.7
20260502035212 12 262 6.4 17.7 0.00 0.00 0.00 58 1014.7
20260502034929 12 285 4.8 17.7 0.00 0.00 0.00 58 1014.8
20260502034213 12 265 3.2 16.1 0.00 0.00 0.00 58 1014.8
20260502033712 12 293 9.7 16.1 0.00 0.00 0.00 58 1014.8
20260502033212 12 268 8.0 11.3 0.00 0.00 0.00 58 1014.9
20260502032712 12 276 6.4 14.5 0.00 0.00 0.00 58 1014.9
20260502032212 12 302 8.0 17.7 0.00 0.00 0.00 58 1015.0
20260502031712 12 289 6.4 17.7 0.00 0.00 0.00 58 1015.0
20260502031211 12 288 11.3 20.9 0.00 0.00 0.00 58 1015.1
20260502030712 12 274 9.7 20.9 0.00 0.00 0.00 58 1015.0
20260502030211 12 283 8.0 16.1 0.00 0.00 0.00 57 1015.0
20260502025711 12 269 8.0 17.7 0.00 0.00 0.00 57 1015.1
20260502025211 12 289 9.7 17.7 0.00 0.00 0.00 57 1015.2
20260502024711 12 274 8.0 17.7 0.00 0.00 0.00 56 1015.2
20260502024211 12 282 11.3 17.7 0.00 0.00 0.00 56 1015.3
20260502023711 12 259 8.0 17.7 0.00 0.00 0.00 55 1015.3
20260502023211 12 299 8.0 19.3 0.00 0.00 0.00 54 1015.4
20260502022711 12 302 9.7 22.5 0.00 0.00 0.00 54 1015.3
20260502022432 12 281 11.3 22.5 0.00 0.00 0.00 53 1015.3
20260502021711 12 289 9.7 20.9 0.00 0.00 0.00 53 1015.4
20260502021211 12 278 9.7 20.9 0.00 0.00 0.00 53 1015.4
20260502020710 13 306 12.9 20.9 0.00 0.00 0.00 53 1015.5
20260502020213 13 310 8.0 20.9 0.00 0.00 0.00 52 1015.5
20260502015712 13 307 12.9 22.5 0.00 0.00 0.00 52 1015.5
20260502015212 13 261 16.1 22.5 0.00 0.00 0.00 52 1015.5
20260502014711 13 326 12.9 27.4 0.00 0.00 0.00 52 1015.6
20260502014211 13 275 11.3 27.4 0.00 0.00 0.00 51 1015.7
20260502013931 13 285 11.3 24.1 0.00 0.00 0.00 51 1015.7
20260502013211 13 306 9.7 22.5 0.00 0.00 0.00 50 1015.7
20260502012711 13 288 12.9 24.1 0.00 0.00 0.00 50 1015.7
20260502012433 13 286 9.7 25.7 0.00 0.00 0.00 50 1015.7
20260502011711 13 262 17.7 25.7 0.00 0.00 0.00 50 1015.7
20260502011430 13 262 12.9 25.7 0.00 0.00 0.00 50 1015.8
20260502010711 13 276 14.5 25.7 0.00 0.00 0.00 49 1015.8
20260502010432 13 254 6.4 25.7 0.00 0.00 0.00 49 1015.8
20260502005711 13 286 12.9 25.7 0.00 0.00 0.00 49 1015.8
20260502005210 14 309 11.3 29.0 0.00 0.00 0.00 49 1015.8
20260502004704 14 290 16.1 30.6 0.00 0.00 0.00 48 1015.9
20260502004204 14 296 14.5 30.6 0.00 0.00 0.00 48 1015.9
20260502003924 14 293 16.1 29.0 0.00 0.00 0.00 47 1016.0
20260502003203 14 290 16.1 29.0 0.00 0.00 0.00 47 1016.0
20260502002703 14 281 12.9 25.7 0.00 0.00 0.00 47 1016.0
20260502002654 14 271 12.9 22.5 0.00 0.00 0.00 47 1016.0
20260502001703 14 296 14.5 24.1 0.00 0.00 0.00 47 1016.1
20260502001422 14 295 16.1 24.1 0.00 0.00 0.00 47 1016.1
20260502000703 14 313 9.7 24.1 0.00 0.00 0.00 46 1016.2
20260502000204 15 281 12.9 22.5 0.00 0.00 0.00 46 1016.2
20260501235703 15 293 14.5 27.4 0.00 0.00 0.00 46 1016.2
20260501235421 15 285 19.3 27.4 0.00 0.00 0.00 45 1016.2
20260501234703 15 274 19.3 25.7 0.00 0.00 0.00 45 1016.3
20260501234203 15 296 9.7 24.1 0.00 0.00 0.00 45 1016.3
20260501233703 15 286 14.5 24.1 0.00 0.00 0.00 45 1016.3
20260501233204 15 289 14.5 33.8 0.00 0.00 0.00 44 1016.3
20260501233156 15 258 14.5 33.8 0.00 0.00 0.00 44 1016.4
20260501232204 15 295 19.3 32.2 0.00 0.00 0.00 44 1016.3
20260501231703 15 276 16.1 41.8 0.00 0.00 0.00 44 1016.4
20260501231203 15 282 20.9 41.8 0.00 0.00 0.00 45 1016.3
20260501230704 15 285 11.3 22.5 0.00 0.00 0.00 45 1016.4
20260501230203 15 275 14.5 24.1 0.00 0.00 0.00 44 1016.4
20260501225704 15 272 12.9 24.1 0.00 0.00 0.00 44 1016.5
20260501225203 15 266 14.5 29.0 0.00 0.00 0.00 43 1016.6
20260501224704 15 275 16.1 29.0 0.00 0.00 0.00 43 1016.5
20260501224205 15 254 22.5 29.0 0.00 0.00 0.00 43 1016.5
20260501223705 15 293 9.7 22.5 0.00 0.00 0.00 42 1016.7
20260501223205 15 266 12.9 32.2 0.00 0.00 0.00 42 1016.7
20260501222704 16 321 19.3 32.2 0.00 0.00 0.00 42 1016.7
20260501222202 16 327 19.3 29.0 0.00 0.00 0.00 42 1016.7
20260501221702 16 272 11.3 29.0 0.00 0.00 0.00 42 1016.8
20260501221202 16 285 14.5 35.4 0.00 0.00 0.00 41 1016.8
20260501220924 16 283 20.9 35.4 0.00 0.00 0.00 41 1016.6
20260501220202 16 282 20.9 35.4 0.00 0.00 0.00 40 1016.8
20260501215923 16 272 20.9 35.4 0.00 0.00 0.00 40 1016.7
20260501215202 16 286 16.1 30.6 0.00 0.00 0.00 40 1016.8
20260501214702 16 281 14.5 25.7 0.00 0.00 0.00 39 1016.8
20260501214201 16 299 12.9 25.7 0.00 0.00 0.00 39 1016.9
20260501213702 16 300 17.7 30.6 0.00 0.00 0.00 39 1016.9
20260501213202 16 0 17.7 30.6 0.00 0.00 0.00 39 1016.9
20260501212702 17 274 16.1 41.8 0.00 0.00 0.00 38 1017.0
20260501212202 17 265 24.1 41.8 0.00 0.00 0.00 37 1017.0
20260501211702 17 268 19.3 38.6 0.00 0.00 0.00 37 1017.1
20260501211202 17 290 20.9 38.6 0.00 0.00 0.00 37 1017.0
20260501210701 17 286 12.9 38.6 0.00 0.00 0.00 36 1017.0
20260501210202 17 302 16.1 29.0 0.00 0.00 0.00 36 1017.0
20260501205702 17 289 17.7 35.4 0.00 0.00 0.00 36 1017.0
20260501205420 17 268 14.5 54.7 0.00 0.00 0.00 36 1017.0
20260501204921 17 276 17.7 54.7 0.00 0.00 0.00 36 1017.0
20260501204202 17 283 16.1 24.1 0.00 0.00 0.00 39 1016.9
20260501203702 17 323 9.7 14.5 0.00 0.00 0.00 42 1017.1
20260501203202 17 271 9.7 11.3 0.00 0.00 0.00 42 1017.0
20260501202925 17 293 6.4 11.3 0.00 0.00 0.00 41 1016.9
20260501202202 17 312 6.4 11.3 0.00 0.00 0.00 41 1016.9
20260501201701 18 283 4.8 11.3 0.00 0.00 0.00 40 1017.0
20260501201202 18 282 6.4 11.3 0.00 0.00 0.00 40 1016.9
20260501200702 18 292 6.4 11.3 0.00 0.00 0.00 40 1016.9
20260501200202 18 293 8.0 14.5 0.00 0.00 0.00 40 1017.0
20260501195702 18 319 9.7 14.5 0.00 0.00 0.00 39 1017.1
20260501195204 18 307 9.7 14.5 0.00 0.00 0.00 38 1017.1
20260501194649 18 296 12.9 14.5 0.00 0.00 0.00 38 1017.1
20260501194412 18 288 6.4 14.5 0.00 0.00 0.00 38 1017.1
20260501193645 19 288 6.4 11.3 0.00 0.00 0.00 38 1017.1
20260501193353 19 288 6.4 19.3 0.00 0.00 0.00 38 1017.0
20260501192633 19 292 9.7 19.3 0.00 0.00 0.00 37 1017.1
20260501192134 19 300 9.7 19.3 0.00 0.00 0.00 37 1017.0
20260501191829 20 312 11.3 22.5 0.00 0.00 0.00 37 1017.0
20260501191325 20 285 11.3 22.5 0.00 0.00 0.00 36 1017.1
20260501190605 20 285 11.3 22.5 0.00 0.00 0.00 36 1017.0
20260501190045 20 298 12.9 22.5 0.00 0.00 0.00 36 1017.0
20260501185532 20 276 16.1 24.1 0.00 0.00 0.00 35 1016.9
20260501185032 20 274 11.3 24.1 0.00 0.00 0.00 35 1016.9
20260501184532 20 271 14.5 22.5 0.00 0.00 0.00 35 1016.8
20260501184031 20 305 11.3 16.1 0.00 0.00 0.00 36 1016.8
20260501183756 20 296 9.7 20.9 0.00 0.00 0.00 36 1016.8
20260501183032 20 285 11.3 22.5 0.00 0.00 0.00 36 1016.8
20260501182532 20 296 12.9 22.5 0.00 0.00 0.00 36 1016.7
20260501182257 21 303 6.4 16.1 0.00 0.00 0.00 36 1016.7
20260501181529 21 302 12.9 16.1 0.00 0.00 0.00 35 1016.6
20260501181005 21 298 9.7 16.1 0.00 0.00 0.00 34 1016.6
20260501180520 21 286 9.7 24.1 0.00 0.00 0.00 34 1016.7
20260501180223 21 290 8.0 24.1 0.00 0.00 0.00 34 1016.6
20260501175506 21 303 16.1 24.1 0.00 0.00 0.00 33 1016.6
20260501175006 21 302 12.9 22.5 0.00 0.00 0.00 32 1016.6
20260501174506 22 292 12.9 27.4 0.00 0.00 0.00 32 1016.6
20260501174229 22 321 19.3 27.4 0.00 0.00 0.00 31 1016.5
20260501173508 22 302 11.3 17.7 0.00 0.00 0.00 30 1016.5
20260501173005 22 305 9.7 24.1 0.00 0.00 0.00 30 1016.5
20260501172505 22 312 20.9 24.1 0.00 0.00 0.00 29 1016.5
20260501172007 22 298 12.9 32.2 0.00 0.00 0.00 28 1016.5
20260501171732 22 319 14.5 32.2 0.00 0.00 0.00 28 1016.5
20260501171005 22 300 19.3 30.6 0.00 0.00 0.00 28 1016.5
20260501170728 23 336 16.1 27.4 0.00 0.00 0.00 27 1016.6
20260501170004 23 336 9.7 32.2 0.00 0.00 0.00 26 1016.6
20260501165505 23 302 14.5 32.2 0.00 0.00 0.00 26 1016.6
20260501165005 23 289 14.5 35.4 0.00 0.00 0.00 25 1016.6
20260501164506 23 300 14.5 35.4 0.00 0.00 0.00 25 1016.6
20260501164005 23 293 9.7 25.7 0.00 0.00 0.00 25 1016.7
20260501163506 23 299 14.5 24.1 0.00 0.00 0.00 23 1016.7
20260501163005 24 272 11.3 22.5 0.00 0.00 0.00 23 1016.7
20260501162506 24 279 12.9 29.0 0.00 0.00 0.00 23 1016.8
20260501162006 24 289 19.3 29.0 0.00 0.00 0.00 23 1016.7
20260501161505 24 299 14.5 27.4 0.00 0.00 0.00 24 1016.8
20260501161004 24 298 16.1 27.4 0.00 0.00 0.00 23 1016.9
20260501160505 24 347 19.3 27.4 0.00 0.00 0.00 23 1016.7
20260501160005 24 289 14.5 30.6 0.00 0.00 0.00 23 1016.8
20260501155504 25 295 19.3 30.6 0.00 0.00 0.00 22 1016.8
20260501155005 25 285 20.9 30.6 0.00 0.00 0.00 22 1016.8
20260501154506 25 269 11.3 24.1 0.00 0.00 0.00 22 1016.8
20260501154004 25 296 17.7 24.1 0.00 0.00 0.00 22 1016.8
20260501153505 25 309 14.5 20.9 0.00 0.00 0.00 21 1016.9
20260501153005 25 288 12.9 25.7 0.00 0.00 0.00 21 1016.8
20260501152503 25 309 14.5 25.7 0.00 0.00 0.00 21 1016.9
20260501152003 25 351 12.9 22.5 0.00 0.00 0.00 21 1016.9
20260501151503 25 313 12.9 22.5 0.00 0.00 0.00 21 1017.0
20260501151004 25 340 12.9 24.1 0.00 0.00 0.00 21 1017.1
20260501150725 25 313 14.5 24.1 0.00 0.00 0.00 21 1017.1
20260501150227 25 306 12.9 24.1 0.00 0.00 0.00 21 1017.1
20260501145723 25 295 12.9 22.5 0.00 0.00 0.00 21 1017.1
20260501145004 25 307 11.3 24.1 0.00 0.00 0.00 20 1017.1
20260501144504 25 302 16.1 24.1 0.00 0.00 0.00 20 1017.2
20260501144228 25 266 9.7 20.9 0.00 0.00 0.00 20 1017.2
20260501143504 25 324 14.5 37.0 0.00 0.00 0.00 20 1017.3
20260501143006 25 282 22.5 37.0 0.00 0.00 0.00 20 1017.4
20260501142506 25 296 12.9 25.7 0.00 0.00 0.00 20 1017.4
20260501142005 25 300 9.7 19.3 0.00 0.00 0.00 20 1017.5
20260501141506 25 312 14.5 19.3 0.00 0.00 0.00 20 1017.6
20260501141225 25 265 6.4 17.7 0.00 0.00 0.00 20 1017.6